Погода в Шатилове

Россия / Орловская область     53°00′07″N   37°22′29″E
темп.,
°C
ветер,
м/с
пор.,
м/с
влажн.,
%
обл.,
%
осадки,
мм/ч
давл.,
гПа
погр.,
м
28 ноября, вс
вс2800:00+3ю51398100 0.0 1004369
03:00+4ю6129897 0.0 1004328
06:00+4ююз41098100 0.0 1004366
09:00+4юз479599 0.0 1006266
12:00+5зюз48845 0.0 1007396
15:00+5ююз248146 0.0 1008124
18:00+3ю3492100 0.0 100961
21:00+3ююв389695 0.0 1009162
29 ноября, пн
пн2900:00+4ююв51093100 0.0 1009437
03:00+4юв51194100 0.0 1007245
06:00+4вюв51197100 0.0 1004241
09:00+5в61498100 2.8 1001452
12:00+6юв51198100 2.5 998358
15:00+7ю61398100 2.8 996488
18:00+7ююв51195100 0.1 994455
21:00+7юв61197100 0.5 990378
30 ноября, вт
вт3000:00+8юв51098100 6.3 983338
03:00+8ю91685100 10.0 9781172
06:00+7юз111793100 6.6 9761306
09:00+1юз142396100 12.7 9821065
12:000зюз142397100 4.0 9861161
15:00+1зюз121984100 4.3 9881038
18:000юз101783100 0.0 9901219
21:000юз9168179 0.1 9901269
1 декабря, ср
ср100:00−1юз81383100 0.0 990918
03:00−2зюз8128588 0.1 991888
06:00−3зюз8128893 0.1 991978
09:00−3зюз71294100 0.5 993913
12:00−3з81293100 1.0 994896
15:00−3з81293100 1.6 996903
18:00−4з71291100 0.4 998781
21:00−4зсз71085100 0.5 1000777
2 декабря, чт
чт200:00−5з598482 0.1 1002757
03:00−7з499293 0.1 1004415
06:00−6зюз499275 0.0 1005331
09:00−5ююз41189100 0.0 1005396
12:00−2ю71595100 0.2 1004613
15:00−1ююз81596100 1.2 1002678
18:00+1юз71598100 0.6 1003591
21:00+1юз71491100 0.6 1004464